Location: Patterson (historical)
(35.1418°N, 90.5529°W)
Time: 18:45:04
(UTC+00:00)

CORIOLIS - Pass Details

Date: 11 December 2025
Orbit: 816 x 835 km, 98.7° (Epoch: 20 January)

Event Time Altitude Azimuth Distance (km) Brightness Sun altitude
Rises 23:15:46 0° 158° (SSE) 3,329 7.3 -5.4°
Reaches altitude 10° 23:18:07 10° 156° (SSE) 2,400 6.6 -5.9°
Maximum altitude 23:23:23 67° 74° (ENE) 880 4.1 -6.9°
Drops below altitude 10° 23:28:40 10° 353° (N) 2,415 6.4 -7.9°
Sets 23:31:02 0° 351° (N) 3,352 7.2 -8.3°
